Weather History for Fort Wayne, IN

Change the Weather History Date:

Sunday, September 29, 2013

  Actual Average Record
Temperature  
Mean Temperature 59 °F 59 °F  
Max Temperature 63 °F 70 °F 94 °F (1953)
Min Temperature 54 °F 47 °F 29 °F (1951)
Degree Days  
Heating Degree Days 6 7  
Month to date heating degree days 96 96  
Since 1 July heating degree days 116 108  
Cooling Degree Days 0 1  
Month to date cooling degree days 98 80  
Year to date cooling degree days 827 797  
Growing Degree Days 8 (Base 50)    
Moisture  
Dew Point 58 °F    
Average Humidity 90    
Maximum Humidity 100    
Minimum Humidity 71    
Precipitation  
Precipitation 0.18 in 0.09 in 1.04 in (1927)
Month to date precipitation 1.89 2.71  
Year to date precipitation 34.23 29.55  
Snow  
Snow 0.00 in 0.00 in 0.00 in (2002)
Month to date snowfall 0.0 0.0  
Since 1 July snowfall 0.0 0.0  
Since 1 September snowfall 0.0 0.0  
Snow Depth 0.00 in    
Sea Level Pressure  
Sea Level Pressure 30.01 in    
Wind  
Wind Speed 5 mph (SW)    
Max Wind Speed 10 mph    
Max Gust Speed 14 mph    
Visibility 5 miles    
Events Fog , Rain    
T = Trace of Precipitation, MM = Missing Value Source: NWS Daily Summary

Daily Weather History Graph

Daily Weather History Graph

Search for Another Location

Airport:

Trip Planner

Search our weather history database for the weather conditions in past years. The results will help you decide how hot, cold, wet, or windy it might be!

Date:

Astronomy

Sep. 29, 2013 Rise Set
Actual Time 7:35 AM EDT 7:25 PM EDT
Civil Twilight 7:08 AM EDT 7:53 PM EDT
Nautical Twilight 6:36 AM EDT 8:24 PM EDT
Astronomical Twilight 6:03 AM EDT 8:57 PM EDT
Moon 2:14 AM EDT (9/29) 4:23 PM EDT (9/29)
Length of Visible Light 12h 44m
Length of Day
11h 50m
Waning Crescent, 27% of the Moon is Illuminated
Sep 29
Waning Crescent
Oct 4
New
Oct 11
First Quarter
Oct 18
Full
Oct 26
Last Quarter

Hourly Weather History & Observations

Time (EDT) Temp. Dew Point Humidity Pressure Visibility Wind Dir Wind Speed Gust Speed Precip Events Conditions
12:54 AM 63.0 °F 55.0 °F 75% 30.02 in 10.0 mi South 6.9 mph - N/A   Scattered Clouds
1:54 AM 62.1 °F 55.0 °F 78% 30.02 in 10.0 mi SSW 8.1 mph - N/A   Scattered Clouds
2:54 AM 61.0 °F 55.0 °F 81% 30.01 in 10.0 mi South 8.1 mph - N/A   Scattered Clouds
3:54 AM 62.1 °F 55.9 °F 80% 30.00 in 10.0 mi SSW 8.1 mph - N/A   Scattered Clouds
4:54 AM 59.0 °F 55.0 °F 87% 29.99 in 10.0 mi SSW 4.6 mph - N/A   Scattered Clouds
5:54 AM 62.1 °F 55.9 °F 80% 29.99 in 10.0 mi SSW 6.9 mph - N/A   Overcast
6:54 AM 61.0 °F 57.0 °F 87% 30.00 in 8.0 mi SSW 3.5 mph - 0.00 in Rain Light Rain
7:44 AM 60.8 °F 57.2 °F 88% 30.01 in 2.5 mi SSW 5.8 mph - 0.03 in Rain Rain
7:54 AM 61.0 °F 57.9 °F 90% 30.01 in 5.0 mi South 4.6 mph - 0.05 in Rain Light Rain
8:12 AM 60.8 °F 57.2 °F 88% 30.02 in 7.0 mi South 5.8 mph - 0.00 in Rain Light Rain
8:54 AM 62.1 °F 57.9 °F 86% 30.01 in 7.0 mi South 5.8 mph - 0.00 in   Overcast
9:35 AM 62.6 °F 59.0 °F 88% 30.01 in 7.0 mi SW 9.2 mph - 0.00 in Rain Light Rain
9:54 AM 62.1 °F 60.1 °F 93% 30.01 in 3.0 mi SSW 9.2 mph - 0.00 in Rain Light Rain
10:14 AM 62.6 °F 60.8 °F 94% 30.02 in 2.5 mi SSW 9.2 mph - 0.02 in Rain Rain
10:23 AM 62.6 °F 60.8 °F 94% 30.02 in 2.5 mi SSW 6.9 mph - 0.03 in Rain Light Rain
10:30 AM 62.6 °F 60.8 °F 94% 30.02 in 3.0 mi SSW 8.1 mph - 0.03 in Rain Light Rain
10:37 AM 62.6 °F 60.8 °F 94% 30.02 in 3.0 mi SSW 8.1 mph - 0.03 in Rain Light Rain
10:54 AM 63.0 °F 61.0 °F 93% 30.02 in 4.0 mi SSW 8.1 mph - 0.03 in   Overcast
11:12 AM 62.6 °F 60.8 °F 94% 30.02 in 3.0 mi SSW 8.1 mph - 0.00 in Rain Light Rain
11:20 AM 62.6 °F 60.8 °F 94% 30.02 in 2.0 mi South 8.1 mph - 0.01 in Rain Light Rain
11:30 AM 62.6 °F 60.8 °F 94% 30.02 in 1.0 mi SSW 8.1 mph - 0.02 in Rain Rain
11:54 AM 62.1 °F 61.0 °F 96% 30.01 in 3.0 mi SSW 8.1 mph - 0.10 in Rain Light Rain
12:35 PM 62.6 °F 60.8 °F 94% 30.02 in 2.0 mi SW 9.2 mph - 0.00 in   Overcast
12:54 PM 63.0 °F 61.0 °F 93% 30.01 in 1.8 mi SW 5.8 mph - 0.00 in   Overcast
1:29 PM 62.6 °F 60.8 °F 94% 30.01 in 3.0 mi SW 8.1 mph - N/A   Overcast
1:54 PM 63.0 °F 61.0 °F 93% 30.01 in 5.0 mi SW 5.8 mph - N/A   Overcast
2:48 PM 62.6 °F 60.8 °F 94% 29.99 in 1.8 mi WSW 3.5 mph - N/A   Overcast
2:54 PM 63.0 °F 61.0 °F 93% 29.99 in 1.0 mi NW 6.9 mph - 0.00 in   Light Drizzle
3:08 PM 62.6 °F 60.8 °F 94% 29.99 in 3.0 mi NW 3.5 mph - 0.00 in   Light Drizzle
3:26 PM 62.6 °F 60.8 °F 94% 29.99 in 2.5 mi NW 5.8 mph - 0.00 in Rain Light Rain
3:36 PM 62.6 °F 60.8 °F 94% 29.99 in 5.0 mi NNW 8.1 mph - 0.00 in Rain Light Rain
3:54 PM 62.1 °F 59.0 °F 90% 29.99 in 4.0 mi NNW 5.8 mph - 0.00 in Rain Light Rain
4:16 PM 62.6 °F 59.0 °F 88% 29.99 in 5.0 mi NNW 5.8 mph - 0.00 in   Light Drizzle
4:54 PM 62.1 °F 57.9 °F 86% 29.99 in 10.0 mi North 6.9 mph - 0.00 in   Overcast
5:54 PM 63.0 °F 57.9 °F 84% 30.00 in 10.0 mi Calm Calm - N/A   Overcast
6:09 PM 62.6 °F 57.2 °F 82% 30.00 in 10.0 mi Calm Calm - N/A   Overcast
6:54 PM 62.1 °F 57.9 °F 86% 30.01 in 10.0 mi Calm Calm - N/A   Mostly Cloudy
7:54 PM 61.0 °F 57.9 °F 90% 30.00 in 10.0 mi Calm Calm - N/A   Mostly Cloudy
8:54 PM 59.0 °F 57.0 °F 93% 30.01 in 10.0 mi Calm Calm - N/A   Scattered Clouds
9:28 PM 53.6 °F 53.6 °F 100% 30.01 in 5.0 mi Calm Calm - N/A   Mostly Cloudy
9:38 PM 55.4 °F 53.6 °F 94% 30.01 in 0.5 mi Calm Calm - N/A Fog Fog
9:45 PM 55.4 °F 53.6 °F 94% 30.01 in 0.2 mi South 3.5 mph - N/A Fog Fog
9:54 PM 55.9 °F 55.0 °F 97% 30.01 in 0.2 mi South 3.5 mph - N/A Fog Fog
10:05 PM 55.4 °F 55.4 °F 100% 30.01 in 0.1 mi SSW 3.5 mph - N/A Fog Fog
10:54 PM 55.0 °F 54.0 °F 96% 30.01 in 0.1 mi Calm Calm - N/A Fog Fog
11:54 PM 54.0 °F 53.1 °F 97% 30.01 in 0.1 mi Calm Calm - N/A Fog Fog